This demonstration page uses our WeatherBlox Daily Observations layout. Learn more.

Left ArrowRight Arrow

47.50024, -111.30081

Hourly Observations for May 12, 2015

Temp ( °F °C ) Dew Point ( °F °C ) Humidity (%) Winds ( mph kmh ) Pressure ( in mb ) Visibility ( mi km ) Precip ( " mm )
12:53 am 00:53 Cloudy 47 8.3 28 -2.2 48 48 NE 16 26 30.00 1016 10 16 0.00 0.00
1:53 am 01:53 Cloudy 44 6.7 28 -2.2 53 53 NE 15 24 30.00 1016 10 16 0.00 0.00
2:53 am 02:53 Clear 40 4.4 27 -2.8 60 60 NE 10 17 30.00 1016 10 16 0.00 0.00
3:53 am 03:53 Partly Cloudy 41 5 28 -2.2 60 60 NE 10 17 29.99 1016 10 16 0.00 0.00
4:53 am 04:53 Mostly Cloudy 40 4.4 29 -1.7 65 65 NE 12 19 30.00 1016 10 16 0.00 0.00
5:53 am 05:53 Cloudy 41 5 29 -1.7 62 62 NE 10 17 30.01 1016 10 16 0.00 0.00
6:53 am 06:53 Cloudy 41 5 30 -1.1 65 65 NNE 7 11 30.03 1017 10 16 0.00 0.00
7:53 am 07:53 Cloudy 41 5 30 -1.1 65 65 N 3 6 30.04 1017 10 16 0.00 0.00
8:53 am 08:53 Cloudy 42 5.6 31 -0.6 65 65 Calm 30.05 1018 10 16 0.00 0.00
9:53 am 09:53 Cloudy 45 7.2 31 -0.6 58 58 ENE 5 7 30.06 1018 10 16 0.00 0.00
10:53 am 10:53 Cloudy 49 9.4 32 0 52 52 NE 13 20 30.05 1018 10 16 0.00 0.00
11:53 am 11:53 Cloudy 49 9.4 31 -0.6 50 50 ENE 14 22 30.06 1018 10 16 0.00 0.00
12:53 pm 12:53 Cloudy 50 10 32 0 50 50 ENE 10 17 30.04 1017 10 16 0.00 0.00
1:53 pm 13:53 Cloudy 52 11.1 32 0 47 47 NNE 10 17 30.04 1017 10 16 0.00 0.00
2:53 pm 14:53 Cloudy 53 11.7 32 0 45 45 ENE 8 13 30.03 1017 10 16 0.00 0.00
3:53 pm 15:53 Cloudy 53 11.7 32 0 45 45 E 7 11 30.02 1017 10 16 0.00 0.00
4:53 pm 16:53 Cloudy 53 11.7 33 0.6 47 47 ENE 9 15 30.01 1016 10 16 0.00 0.00
5:53 pm 17:53 Cloudy 54 12.2 33 0.6 45 45 ENE 10 17 30.00 1016 10 16 0.00 0.00
6:53 pm 18:53 Cloudy 53 11.7 34 1.1 48 48 ENE 8 13 30.00 1016 10 16 0.00 0.00
7:53 pm 19:53 Cloudy 52 11.1 34 1.1 50 50 ENE 8 13 29.99 1016 10 16 0.00 0.00
8:53 pm 20:53 Cloudy 52 11.1 33 0.6 49 49 ENE 8 13 29.99 1016 10 16 0.00 0.00
9:53 pm 21:53 Cloudy 51 10.6 33 0.6 50 50 ENE 7 11 29.99 1016 10 16 0.00 0.00
10:53 pm 22:53 Cloudy 50 10 33 0.6 52 52 E 6 9 29.98 1015 10 16 0.00 0.00
11:53 pm 23:53 Cloudy 49 9.4 33 0.6 55 55 NE 7 11 29.97 1015 10 16 0.00 0.00

Powered by AerisWeather